QPF
0.00 0.00 0.00 0.00 0.00 0.00 0.00 0.01 0.02 0.01 0.00 0.00 0.01 0.02 0.02 0.02 0.01 0.01 0.01 0.02 0.01 0.02 0.02 0.02 0.02 0.02 0.02 0.04 0.05 0.06 0.07 0.07 0.06 0.05 0.04 0.05 0.05 0.05 0.04 0.03 0.02 0.02 0.02 0.02
0.00 0.00 0.00 0.00 0.00 0.00 0.00 0.00 0.01 0.01 0.01 0.00 0.01 0.02 0.03 0.02 0.02 0.01 0.01 0.01 0.01 0.02 0.02 0.03 0.02 0.02 0.02 0.04 0.06 0.08 0.08 0.07 0.05 0.04 0.04 0.04 0.05 0.04 0.03 0.03 0.03 0.03 0.03 0.03
0.00 0.00 0.00 0.00 0.00 0.00 0.00 0.00 0.01 0.02 0.01 0.01 0.01 0.02 0.03 0.03 0.03 0.01 0.01 0.01 0.02 0.02 0.02 0.02 0.02 0.03 0.05 0.07 0.08 0.09 0.08 0.05 0.04 0.04 0.04 0.04 0.05 0.06 0.08 0.09 0.09 0.09 0.09 0.08
0.00 0.00 0.00 0.00 0.00 0.00 0.00 0.00 0.00 0.01 0.01 0.01 0.01 0.02 0.03 0.04 0.04 0.03 0.01 0.01 0.01 0.02 0.02 0.02 0.01 0.02 0.04 0.09 0.10 0.10 0.10 0.06 0.04 0.04 0.07 0.11 0.15 0.18 0.19 0.20 0.19 0.18 0.15 0.12
0.01 0.01 0.00 0.00 0.00 0.00 0.00 0.00 0.00 0.00 0.00 0.00 0.00 0.01 0.03 0.04 0.06 0.05 0.02 0.01 0.01 0.01 0.01 0.02 0.01 0.02 0.03 0.06 0.09 0.09 0.09 0.09 0.11 0.14 0.19 0.24 0.29 0.31 0.29 0.25 0.21 0.16 0.11 0.07
0.03 0.02 0.00 0.00 0.00 0.00 0.00 0.00 0.00 0.00 0.00 0.00 0.00 0.01 0.02 0.03 0.06 0.08 0.05 0.02 0.02 0.02 0.02 0.03 0.04 0.06 0.09 0.11 0.15 0.19 0.23 0.28 0.31 0.33 0.36 0.36 0.34 0.31 0.25 0.19 0.13 0.08 0.04 0.02
0.03 0.02 0.00 0.00 0.00 0.00 0.00 0.00 0.00 0.00 0.00 0.00 0.00 0.00 0.01 0.03 0.05 0.08 0.11 0.10 0.09 0.08 0.09 0.10 0.12 0.16 0.21 0.25 0.32 0.38 0.42 0.46 0.47 0.42 0.38 0.30 0.22 0.15 0.09 0.05 0.02 0.01 0.01 0.00
0.01 0.01 0.00 0.00 0.00 0.00 0.00 0.00 0.00 0.00 0.00 0.00 0.00 0.00 0.00 0.01 0.03 0.05 0.09 0.13 0.15 0.17 0.17 0.18 0.22 0.28 0.33 0.38 0.41 0.38 0.34 0.29 0.25 0.18 0.13 0.08 0.04 0.02 0.01 0.01 0.00 0.00 0.00 0.00
0.00 0.00 0.00 0.00 0.00 0.00 0.00 0.00 0.00 0.00 0.00 0.00 0.00 0.00 0.00 0.00 0.01 0.02 0.03 0.04 0.08 0.12 0.15 0.15 0.16 0.18 0.20 0.18 0.16 0.12 0.09 0.05 0.03 0.02 0.01 0.01 0.00 0.00 0.00 0.00 0.00 0.00 0.00 0.00
0.00 0.00 0.00 0.00 0.00 0.00 0.00 0.00 0.00 0.00 0.00 0.00 0.00 0.00 0.00 0.00 0.00 0.01 0.01 0.01 0.01 0.02 0.02 0.02 0.02 0.02 0.02 0.01 0.01 0.01 0.00 0.00 0.00 0.00 0.00 0.00 0.00 0.00 0.00 0.00 0.00 0.00 0.00 0.00
0.00 0.00 0.00 0.00 0.00 0.00 0.00 0.00 0.00 0.00 0.00 0.00 0.00 0.00 0.00 0.00 0.00 0.00 0.00 0.00 0.00 0.00 0.00 0.00 0.00 0.00 0.00 0.00 0.00 0.00 0.00 0.00 0.00 0.00 0.00 0.00 0.00 0.00 0.00 0.00 0.00 0.00 0.00 0.00
0.00 0.00 0.00 0.00 0.00 0.00 0.00 0.00 0.00 0.00 0.00 0.00 0.00 0.00 0.00 0.00 0.00 0.00 0.00 0.00 0.00 0.01 0.01 0.00 0.00 0.00 0.00 0.00 0.00 0.00 0.00 0.00 0.00 0.00 0.00 0.00 0.00 0.00 0.00 0.00 0.00 0.00 0.00 0.00
0.00 0.00 0.00 0.00 0.00 0.00 0.00 0.00 0.00 0.00 0.00 0.00 0.00 0.00 0.00 0.00 0.00 0.00 0.00 0.00 0.00 0.01 0.01 0.01 0.00 0.00 0.00 0.00 0.00 0.00 0.00 0.00 0.00 0.00 0.00 0.00 0.00 0.00 0.00 0.00 0.00 0.00 0.00 0.00
0.00 0.00 0.00 0.00 0.00 0.00 0.00 0.00 0.00 0.00 0.00 0.00 0.00 0.00 0.00 0.00 0.00 0.00 0.00 0.00 0.00 0.01 0.01 0.00 0.00 0.00 0.00 0.00 0.00 0.00 0.00 0.00 0.00 0.00 0.00 0.00 0.00 0.00 0.00 0.00 0.00 0.00 0.00 0.00
0.00 0.00 0.00 0.00 0.00 0.00 0.00 0.00 0.00 0.00 0.00 0.00 0.00 0.00 0.00 0.00 0.00 0.00 0.00 0.00 0.00 0.00 0.00 0.00 0.00 0.00 0.00 0.00 0.00 0.00 0.00 0.00 0.00 0.00 0.00 0.00 0.00 0.00 0.00 0.00 0.00 0.00 0.00 0.00
0.00 0.00 0.00 0.00 0.00 0.00 0.00 0.00 0.00 0.00 0.00 0.00 0.00 0.00 0.00 0.00 0.00 0.00 0.00 0.00 0.00 0.00 0.00 0.00 0.00 0.00 0.00 0.00 0.00 0.00 0.00 0.00 0.00 0.00 0.00 0.00 0.00 0.00 0.00 0.00 0.00 0.00 0.00 0.00
0.00 0.00 0.00 0.00 0.00 0.00 0.00 0.00 0.00 0.00 0.00 0.00 0.00 0.00 0.00 0.00 0.00 0.00 0.00 0.00 0.00 0.00 0.00 0.00 0.00 0.00 0.00 0.00 0.00 0.00 0.00 0.00 0.00 0.00 0.00 0.00 0.00 0.00 0.00 0.00 0.00 0.00 0.00 0.00
0.00 0.00 0.00 0.00 0.00 0.00 0.00 0.00 0.00 0.00 0.00 0.00 0.00 0.00 0.00 0.00 0.00 0.00 0.00 0.00 0.00 0.00 0.00 0.00 0.00 0.00 0.00 0.00 0.00 0.00 0.00 0.00 0.00 0.00 0.00 0.00 0.00 0.00 0.00 0.00 0.00 0.00 0.00 0.00
0.00 0.00 0.00 0.00 0.00 0.00 0.00 0.00 0.00 0.00 0.00 0.00 0.00 0.00 0.00 0.00 0.00 0.00 0.00 0.00 0.00 0.00 0.00 0.00 0.00 0.00 0.00 0.00 0.00 0.00 0.00 0.00 0.00 0.00 0.00 0.00 0.00 0.00 0.00 0.00 0.00 0.00 0.00 0.00
0.00 0.00 0.00 0.00 0.00 0.00 0.01 0.00 0.00 0.01 0.01 0.01 0.01 0.01 0.00 0.00 0.00 0.00 0.00 0.00 0.00 0.00 0.00 0.00 0.00 0.00 0.00 0.00 0.00 0.00 0.00 0.00 0.00 0.00 0.00 0.00 0.00 0.00 0.00 0.00 0.00 0.00 0.00 0.00
0.01 0.00 0.01 0.01 0.01 0.01 0.02 0.02 0.02 0.02 0.02 0.02 0.01 0.01 0.00 0.00 0.00 0.00 0.00 0.00 0.00 0.00 0.00 0.00 0.00 0.00 0.00 0.00 0.00 0.00 0.00 0.00 0.00 0.00 0.00 0.00 0.00 0.00 0.00 0.00 0.00 0.00 0.00 0.00
0.01 0.01 0.02 0.02 0.02 0.02 0.03 0.03 0.03 0.03 0.03 0.03 0.02 0.01 0.00 0.00 0.00 0.00 0.00 0.00 0.00 0.00 0.00 0.00 0.00 0.00 0.00 0.00 0.00 0.00 0.00 0.00 0.00 0.00 0.00 0.00 0.00 0.00 0.00 0.00 0.00 0.00 0.00 0.00
0.01 0.01 0.01 0.02 0.02 0.02 0.03 0.03 0.03 0.03 0.02 0.02 0.02 0.01 0.00 0.00 0.00 0.00 0.00 0.00 0.00 0.00 0.00 0.00 0.00 0.00 0.00 0.00 0.00 0.00 0.00 0.00 0.00 0.00 0.00 0.00 0.00 0.00 0.00 0.00 0.00 0.00 0.00 0.00
0.00 0.00 0.00 0.01 0.01 0.01 0.02 0.02 0.02 0.02 0.02 0.02 0.02 0.01 0.00 0.00 0.00 0.00 0.00 0.00 0.00 0.00 0.00 0.00 0.00 0.00 0.00 0.00 0.00 0.00 0.00 0.00 0.00 0.00 0.00 0.00 0.00 0.00 0.00 0.00 0.00 0.00 0.00 0.00
0.00 0.00 0.00 0.00 0.00 0.01 0.01 0.01 0.01 0.01 0.01 0.01 0.01 0.01 0.00 0.00 0.00 0.00 0.00 0.00 0.00 0.00 0.00 0.00 0.00 0.00 0.00 0.00 0.00 0.00 0.00 0.00 0.00 0.00 0.00 0.00 0.00 0.00 0.00 0.00 0.00 0.00 0.00 0.00
0.00 0.00 0.00 0.00 0.00 0.00 0.00 0.00 0.01 0.01 0.01 0.01 0.01 0.01 0.00 0.00 0.00 0.00 0.00 0.00 0.00 0.00 0.00 0.00 0.00 0.00 0.00 0.00 0.00 0.00 0.00 0.00 0.00 0.00 0.00 0.00 0.00 0.00 0.00 0.00 0.00 0.00 0.00 0.00
0.00 0.00 0.00 0.00 0.00 0.00 0.00 0.00 0.00 0.00 0.00 0.00 0.00 0.01 0.01 0.01 0.00 0.00 0.00 0.00 0.00 0.00 0.00 0.00 0.00 0.00 0.00 0.00 0.00 0.00 0.00 0.00 0.00 0.00 0.00 0.00 0.00 0.00 0.00 0.00 0.00 0.00 0.00 0.00
MSLP
1014.68 1015.12 1015.49 1015.71 1015.74 1015.54 1015.10 1014.43 1013.57 1012.57 1011.51 1010.45 1009.47 1008.61 1007.90 1007.35 1006.93 1006.63 1006.41 1006.24 1006.10 1005.97 1005.85 1005.74 1005.66 1005.61 1005.61 1005.66 1005.76 1005.92 1006.12 1006.39 1006.72 1007.14 1007.65 1008.28 1009.04 1009.91 1010.89 1011.93 1013.00 1014.06 1015.06 1015.96
1014.54 1014.82 1014.97 1014.95 1014.74 1014.33 1013.74 1013.00 1012.17 1011.31 1010.46 1009.69 1009.02 1008.48 1008.06 1007.73 1007.48 1007.28 1007.10 1006.92 1006.74 1006.57 1006.43 1006.32 1006.27 1006.29 1006.37 1006.51 1006.71 1006.94 1007.21 1007.51 1007.87 1008.28 1008.79 1009.40 1010.13 1010.97 1011.92 1012.93 1013.96 1014.97 1015.91 1016.74
1014.28 1014.37 1014.30 1014.05 1013.62 1013.04 1012.34 1011.59 1010.85 1010.16 1009.57 1009.10 1008.78 1008.57 1008.44 1008.37 1008.30 1008.22 1008.09 1007.92 1007.72 1007.52 1007.34 1007.23 1007.19 1007.25 1007.38 1007.60 1007.86 1008.16 1008.49 1008.83 1009.20 1009.63 1010.12 1010.71 1011.41 1012.21 1013.11 1014.06 1015.03 1015.96 1016.82 1017.56
1013.89 1013.79 1013.50 1013.05 1012.45 1011.75 1011.01 1010.30 1009.68 1009.19 1008.87 1008.72 1008.73 1008.84 1009.01 1009.18 1009.30 1009.33 1009.27 1009.12 1008.91 1008.69 1008.50 1008.36 1008.33 1008.40 1008.57 1008.82 1009.13 1009.48 1009.84 1010.22 1010.61 1011.04 1011.53 1012.10 1012.76 1013.52 1014.35 1015.22 1016.10 1016.94 1017.69 1018.33
1013.40 1013.11 1012.65 1012.04 1011.33 1010.57 1009.84 1009.21 1008.73 1008.46 1008.40 1008.54 1008.84 1009.23 1009.66 1010.04 1010.32 1010.47 1010.48 1010.36 1010.17 1009.94 1009.73 1009.59 1009.54 1009.62 1009.80 1010.07 1010.41 1010.78 1011.17 1011.56 1011.97 1012.41 1012.89 1013.43 1014.05 1014.75 1015.51 1016.30 1017.08 1017.81 1018.45 1018.97
1012.82 1012.37 1011.78 1011.07 1010.31 1009.56 1008.89 1008.38 1008.07 1007.99 1008.16 1008.53 1009.07 1009.68 1010.29 1010.83 1011.24 1011.48 1011.56 1011.48 1011.31 1011.09 1010.89 1010.75 1010.71 1010.78 1010.97 1011.25 1011.59 1011.97 1012.37 1012.78 1013.19 1013.62 1014.09 1014.61 1015.19 1015.83 1016.51 1017.21 1017.88 1018.50 1019.02 1019.44
1012.15 1011.60 1010.94 1010.22 1009.48 1008.79 1008.23 1007.85 1007.70 1007.80 1008.14 1008.68 1009.37 1010.11 1010.84 1011.47 1011.96 1012.26 1012.39 1012.37 1012.23 1012.05 1011.87 1011.76 1011.73 1011.82 1012.01 1012.29 1012.63 1013.01 1013.41 1013.82 1014.23 1014.66 1015.11 1015.61 1016.14 1016.72 1017.32 1017.92 1018.49 1019.00 1019.41 1019.72
1011.44 1010.85 1010.19 1009.51 1008.86 1008.29 1007.87 1007.64 1007.64 1007.87 1008.33 1008.96 1009.71 1010.51 1011.27 1011.92 1012.43 1012.77 1012.94 1012.96 1012.88 1012.75 1012.64 1012.57 1012.58 1012.70 1012.90 1013.19 1013.53 1013.91 1014.30 1014.70 1015.10 1015.52 1015.96 1016.42 1016.91 1017.43 1017.95 1018.46 1018.93 1019.33 1019.64 1019.86
1010.71 1010.14 1009.55 1008.98 1008.46 1008.05 1007.79 1007.71 1007.84 1008.17 1008.68 1009.34 1010.08 1010.85 1011.57 1012.20 1012.69 1013.03 1013.23 1013.30 1013.29 1013.24 1013.20 1013.21 1013.29 1013.44 1013.68 1013.98 1014.33 1014.70 1015.08 1015.47 1015.86 1016.26 1016.67 1017.10 1017.55 1018.01 1018.45 1018.87 1019.25 1019.55 1019.77 1019.91
1010.03 1009.53 1009.05 1008.62 1008.27 1008.04 1007.95 1008.01 1008.24 1008.63 1009.16 1009.79 1010.48 1011.16 1011.81 1012.36 1012.81 1013.14 1013.35 1013.48 1013.54 1013.59 1013.65 1013.75 1013.91 1014.12 1014.40 1014.73 1015.08 1015.45 1015.82 1016.20 1016.57 1016.95 1017.33 1017.73 1018.12 1018.52 1018.89 1019.23 1019.52 1019.73 1019.87 1019.93
1009.45 1009.04 1008.69 1008.43 1008.26 1008.20 1008.26 1008.46 1008.77 1009.20 1009.71 1010.29 1010.89 1011.47 1012.02 1012.49 1012.89 1013.19 1013.43 1013.61 1013.76 1013.90 1014.07 1014.27 1014.52 1014.80 1015.13 1015.48 1015.84 1016.21 1016.57 1016.93 1017.28 1017.63 1017.98 1018.34 1018.68 1019.02 1019.32 1019.58 1019.79 1019.92 1019.99 1019.99
1009.03 1008.72 1008.50 1008.38 1008.36 1008.46 1008.66 1008.95 1009.33 1009.78 1010.27 1010.79 1011.31 1011.81 1012.26 1012.66 1013.01 1013.31 1013.57 1013.81 1014.04 1014.29 1014.55 1014.85 1015.17 1015.52 1015.89 1016.26 1016.63 1016.99 1017.34 1017.67 1018.00 1018.32 1018.64 1018.95 1019.24 1019.52 1019.76 1019.95 1020.08 1020.15 1020.16 1020.10
1008.80 1008.57 1008.44 1008.43 1008.53 1008.74 1009.04 1009.41 1009.84 1010.30 1010.79 1011.27 1011.73 1012.16 1012.56 1012.92 1013.25 1013.56 1013.86 1014.15 1014.46 1014.79 1015.14 1015.51 1015.90 1016.29 1016.68 1017.07 1017.43 1017.78 1018.10 1018.41 1018.71 1018.99 1019.27 1019.54 1019.79 1020.01 1020.19 1020.32 1020.39 1020.40 1020.35 1020.26
1008.79 1008.59 1008.51 1008.55 1008.71 1008.98 1009.34 1009.76 1010.22 1010.71 1011.20 1011.67 1012.11 1012.53 1012.91 1013.27 1013.62 1013.95 1014.29 1014.65 1015.02 1015.41 1015.81 1016.23 1016.65 1017.07 1017.46 1017.84 1018.19 1018.51 1018.81 1019.09 1019.35 1019.60 1019.84 1020.07 1020.27 1020.44 1020.57 1020.64 1020.67 1020.63 1020.54 1020.42
1008.97 1008.76 1008.67 1008.71 1008.87 1009.15 1009.52 1009.96 1010.44 1010.95 1011.46 1011.96 1012.43 1012.88 1013.29 1013.69 1014.08 1014.46 1014.85 1015.25 1015.66 1016.09 1016.52 1016.96 1017.38 1017.79 1018.17 1018.52 1018.84 1019.13 1019.40 1019.65 1019.88 1020.10 1020.30 1020.48 1020.64 1020.77 1020.85 1020.88 1020.87 1020.80 1020.69 1020.54
1009.31 1009.04 1008.89 1008.87 1008.98 1009.22 1009.56 1010.00 1010.49 1011.03 1011.58 1012.13 1012.66 1013.17 1013.65 1014.11 1014.56 1015.00 1015.44 1015.88 1016.32 1016.76 1017.19 1017.61 1018.02 1018.40 1018.75 1019.06 1019.35 1019.61 1019.84 1020.06 1020.26 1020.44 1020.61 1020.76 1020.88 1020.97 1021.02 1021.02 1020.97 1020.88 1020.75 1020.60
1009.73 1009.39 1009.14 1009.02 1009.04 1009.20 1009.50 1009.90 1010.39 1010.95 1011.55 1012.16 1012.77 1013.37 1013.94 1014.49 1015.01 1015.51 1015.99 1016.45 1016.90 1017.33 1017.75 1018.14 1018.51 1018.85 1019.16 1019.44 1019.69 1019.92 1020.12 1020.31 1020.49 1020.65 1020.79 1020.91 1021.00 1021.06 1021.08 1021.05 1020.99 1020.88 1020.75 1020.59
1010.20 1009.76 1009.40 1009.16 1009.07 1009.14 1009.36 1009.72 1010.20 1010.77 1011.41 1012.09 1012.78 1013.47 1014.13 1014.76 1015.35 1015.91 1016.42 1016.90 1017.35 1017.76 1018.15 1018.51 1018.84 1019.14 1019.41 1019.66 1019.89 1020.09 1020.28 1020.45 1020.61 1020.75 1020.87 1020.97 1021.03 1021.06 1021.06 1021.02 1020.94 1020.83 1020.70 1020.54
1010.66 1010.13 1009.66 1009.31 1009.11 1009.08 1009.22 1009.52 1009.98 1010.55 1011.22 1011.95 1012.71 1013.47 1014.21 1014.90 1015.55 1016.15 1016.69 1017.18 1017.62 1018.02 1018.38 1018.70 1019.00 1019.28 1019.53 1019.77 1019.98 1020.18 1020.37 1020.53 1020.68 1020.81 1020.92 1020.99 1021.04 1021.05 1021.03 1020.97 1020.89 1020.78 1020.64 1020.49
1011.09 1010.49 1009.94 1009.50 1009.20 1009.08 1009.14 1009.39 1009.81 1010.38 1011.05 1011.81 1012.61 1013.41 1014.20 1014.94 1015.62 1016.24 1016.80 1017.29 1017.72 1018.11 1018.45 1018.77 1019.06 1019.33 1019.58 1019.82 1020.05 1020.25 1020.45 1020.62 1020.76 1020.89 1020.98 1021.04 1021.07 1021.06 1021.03 1020.96 1020.87 1020.75 1020.62 1020.47
1011.49 1010.85 1010.25 1009.74 1009.37 1009.19 1009.19 1009.39 1009.77 1010.30 1010.97 1011.72 1012.53 1013.34 1014.14 1014.89 1015.58 1016.21 1016.77 1017.26 1017.69 1018.08 1018.43 1018.75 1019.05 1019.34 1019.61 1019.87 1020.12 1020.35 1020.55 1020.73 1020.89 1021.00 1021.08 1021.13 1021.14 1021.12 1021.07 1020.99 1020.89 1020.77 1020.63 1020.48
1011.86 1011.21 1010.60 1010.06 1009.66 1009.44 1009.40 1009.55 1009.89 1010.38 1011.01 1011.73 1012.51 1013.30 1014.08 1014.81 1015.49 1016.11 1016.66 1017.15 1017.58 1017.98 1018.35 1018.69 1019.02 1019.34 1019.65 1019.95 1020.22 1020.48 1020.70 1020.89 1021.04 1021.16 1021.23 1021.25 1021.25 1021.20 1021.13 1021.04 1020.93 1020.80 1020.65 1020.49
1012.22 1011.59 1010.99 1010.47 1010.07 1009.83 1009.76 1009.88 1010.18 1010.63 1011.20 1011.87 1012.59 1013.32 1014.05 1014.75 1015.39 1015.98 1016.52 1017.01 1017.45 1017.87 1018.26 1018.64 1019.01 1019.37 1019.72 1020.05 1020.36 1020.63 1020.87 1021.06 1021.21 1021.31 1021.36 1021.37 1021.33 1021.27 1021.18 1021.07 1020.94 1020.79 1020.63 1020.44
1012.56 1011.98 1011.42 1010.94 1010.56 1010.33 1010.26 1010.36 1010.62 1011.01 1011.52 1012.11 1012.76 1013.43 1014.09 1014.72 1015.32 1015.88 1016.40 1016.88 1017.34 1017.78 1018.20 1018.61 1019.02 1019.42 1019.80 1020.16 1020.49 1020.77 1021.01 1021.20 1021.33 1021.41 1021.43 1021.41 1021.35 1021.26 1021.15 1021.01 1020.86 1020.69 1020.50 1020.28
1012.88 1012.35 1011.86 1011.42 1011.09 1010.89 1010.83 1010.91 1011.14 1011.48 1011.92 1012.44 1013.00 1013.59 1014.18 1014.75 1015.30 1015.83 1016.33 1016.81 1017.28 1017.73 1018.18 1018.62 1019.06 1019.49 1019.89 1020.26 1020.59 1020.87 1021.09 1021.25 1021.36 1021.40 1021.40 1021.34 1021.25 1021.13 1020.98 1020.82 1020.64 1020.44 1020.22 1019.96
1013.14 1012.68 1012.24 1011.88 1011.60 1011.43 1011.39 1011.47 1011.66 1011.96 1012.34 1012.79 1013.27 1013.79 1014.31 1014.83 1015.33 1015.83 1016.32 1016.80 1017.27 1017.74 1018.21 1018.67 1019.12 1019.56 1019.96 1020.32 1020.64 1020.89 1021.08 1021.21 1021.27 1021.28 1021.23 1021.13 1021.00 1020.85 1020.67 1020.47 1020.25 1020.02 1019.76 1019.47
1013.32 1012.91 1012.55 1012.24 1012.01 1011.88 1011.85 1011.93 1012.10 1012.36 1012.70 1013.09 1013.52 1013.97 1014.44 1014.92 1015.40 1015.88 1016.36 1016.84 1017.32 1017.81 1018.28 1018.75 1019.20 1019.63 1020.01 1020.35 1020.62 1020.84 1020.98 1021.06 1021.07 1021.03 1020.93 1020.79 1020.62 1020.42 1020.21 1019.97 1019.72 1019.44 1019.14 1018.81
Thickness
5515 5523 5525 5522 5523 5521 5518 5518 5517 5532 5542 5557 5560 5559 5557 5551 5543 5536 5530 5524 5516 5508 5502 5499 5498 5499 5504 5510 5518 5525 5529 5533 5537 5540 5543 5545 5546 5545 5543 5540 5535 5530 5523 5516
5513 5521 5520 5519 5526 5527 5527 5531 5533 5539 5547 5559 5559 5556 5552 5542 5533 5527 5520 5515 5508 5502 5496 5491 5488 5489 5492 5497 5504 5511 5515 5518 5523 5526 5529 5531 5531 5530 5528 5524 5519 5514 5508 5501
5513 5521 5522 5523 5540 5538 5537 5544 5545 5545 5554 5560 5558 5555 5543 5529 5521 5515 5510 5507 5502 5496 5489 5484 5481 5481 5482 5486 5491 5496 5500 5505 5509 5513 5516 5517 5517 5515 5511 5507 5503 5498 5493 5488
5514 5517 5517 5545 5557 5553 5550 5554 5555 5556 5559 5559 5556 5548 5530 5519 5512 5508 5503 5498 5493 5488 5483 5479 5478 5477 5477 5480 5482 5485 5488 5492 5497 5501 5503 5503 5502 5499 5495 5491 5488 5484 5479 5475
5514 5517 5525 5546 5555 5554 5551 5553 5559 5557 5559 5557 5553 5544 5530 5515 5508 5502 5498 5494 5490 5486 5482 5479 5477 5475 5475 5475 5476 5477 5479 5483 5487 5490 5491 5491 5489 5485 5483 5480 5475 5471 5467 5463
5515 5520 5529 5549 5559 5557 5552 5551 5562 5560 5557 5553 5548 5544 5535 5513 5506 5500 5496 5493 5489 5485 5482 5478 5476 5475 5474 5471 5472 5473 5474 5477 5479 5482 5483 5481 5479 5476 5473 5469 5465 5462 5457 5453
5517 5520 5531 5549 5555 5552 5548 5556 5564 5560 5556 5551 5543 5536 5520 5510 5504 5498 5494 5491 5487 5484 5481 5477 5476 5475 5473 5471 5470 5470 5471 5472 5473 5473 5474 5472 5469 5466 5462 5459 5456 5452 5447 5441
5518 5520 5529 5554 5550 5550 5554 5559 5558 5557 5553 5545 5533 5522 5516 5510 5504 5498 5493 5489 5486 5482 5479 5476 5475 5475 5471 5469 5467 5467 5468 5468 5467 5466 5466 5463 5460 5456 5454 5450 5445 5440 5435 5429
5524 5535 5549 5553 5554 5557 5553 5552 5552 5549 5546 5537 5527 5520 5514 5509 5503 5498 5493 5488 5484 5480 5477 5475 5473 5472 5470 5466 5466 5465 5465 5463 5461 5460 5457 5455 5452 5448 5443 5439 5434 5428 5422 5417
5529 5537 5545 5549 5552 5552 5549 5547 5546 5544 5540 5533 5526 5518 5512 5507 5501 5496 5491 5487 5483 5479 5476 5473 5471 5470 5468 5465 5464 5463 5460 5457 5454 5451 5447 5445 5442 5438 5433 5427 5422 5417 5412 5406
5529 5536 5543 5550 5550 5549 5546 5542 5540 5539 5536 5530 5523 5516 5510 5505 5500 5495 5490 5485 5482 5478 5474 5471 5469 5467 5465 5463 5461 5457 5453 5449 5445 5442 5439 5434 5431 5427 5422 5418 5414 5409 5403 5397
5527 5536 5539 5545 5549 5544 5541 5538 5534 5531 5527 5523 5519 5513 5507 5501 5496 5492 5487 5482 5478 5474 5471 5468 5466 5462 5459 5457 5454 5451 5445 5440 5436 5432 5428 5424 5421 5417 5416 5412 5409 5403 5397 5391
5528 5535 5537 5541 5540 5538 5535 5532 5528 5525 5521 5516 5512 5508 5503 5497 5492 5488 5483 5479 5475 5471 5468 5464 5460 5456 5453 5451 5448 5444 5438 5432 5428 5424 5420 5416 5412 5408 5404 5401 5399 5394 5389 5383
5523 5527 5531 5533 5531 5529 5526 5522 5519 5516 5513 5510 5506 5502 5497 5492 5487 5482 5478 5474 5471 5467 5463 5459 5455 5450 5447 5444 5440 5435 5431 5427 5421 5415 5411 5408 5404 5400 5396 5392 5386 5381 5376 5371
5512 5517 5523 5524 5520 5517 5514 5512 5509 5506 5504 5502 5499 5495 5491 5486 5481 5476 5472 5468 5465 5461 5456 5452 5448 5443 5440 5437 5433 5428 5423 5417 5413 5408 5405 5401 5397 5393 5388 5384 5378 5371 5364 5357
5496 5505 5510 5511 5509 5507 5505 5505 5503 5500 5498 5496 5492 5488 5484 5479 5474 5469 5465 5463 5459 5454 5450 5446 5441 5437 5434 5430 5425 5420 5416 5413 5407 5402 5398 5394 5390 5385 5380 5375 5369 5361 5353 5346
5483 5493 5499 5501 5501 5501 5500 5501 5500 5497 5494 5490 5486 5481 5477 5472 5466 5462 5458 5454 5451 5447 5443 5440 5435 5431 5427 5423 5419 5413 5409 5406 5402 5396 5391 5387 5383 5378 5372 5366 5360 5352 5344 5337
5475 5482 5488 5494 5498 5500 5499 5498 5496 5494 5490 5486 5480 5475 5471 5467 5463 5457 5451 5447 5442 5438 5435 5432 5429 5425 5420 5416 5412 5407 5403 5398 5394 5389 5385 5380 5376 5370 5364 5358 5351 5344 5335 5327
5473 5479 5486 5493 5498 5500 5500 5498 5495 5491 5486 5480 5475 5471 5467 5462 5456 5450 5446 5442 5438 5433 5428 5426 5424 5419 5414 5411 5406 5401 5397 5392 5387 5382 5378 5374 5368 5362 5356 5350 5343 5335 5327 5319
5468 5475 5482 5489 5494 5496 5496 5494 5490 5485 5480 5475 5470 5465 5459 5454 5449 5444 5440 5437 5435 5431 5426 5421 5417 5412 5408 5404 5400 5395 5390 5385 5380 5375 5370 5365 5360 5354 5348 5342 5335 5327 5319 5311
5461 5467 5474 5479 5483 5486 5487 5486 5483 5478 5474 5470 5466 5461 5455 5448 5443 5439 5435 5429 5425 5423 5419 5416 5410 5406 5402 5398 5393 5388 5383 5378 5373 5368 5363 5357 5352 5346 5340 5334 5326 5319 5311 5303
5454 5460 5465 5470 5473 5474 5474 5474 5474 5471 5467 5463 5458 5453 5447 5441 5437 5433 5430 5427 5422 5419 5413 5408 5403 5400 5396 5391 5386 5381 5376 5371 5366 5361 5355 5350 5345 5339 5333 5326 5318 5309 5301 5293
5446 5451 5455 5459 5462 5463 5464 5464 5464 5462 5460 5456 5452 5448 5444 5440 5436 5432 5425 5420 5416 5413 5406 5402 5398 5396 5391 5384 5379 5374 5369 5364 5359 5354 5349 5344 5338 5332 5325 5317 5309 5301 5293 5287
5437 5441 5444 5448 5451 5453 5453 5453 5453 5453 5451 5448 5445 5442 5439 5434 5428 5425 5422 5417 5413 5407 5400 5397 5394 5390 5383 5376 5372 5367 5362 5357 5352 5347 5342 5337 5331 5324 5317 5309 5302 5294 5288 5282
5427 5431 5434 5438 5440 5442 5443 5442 5442 5441 5440 5439 5436 5434 5432 5429 5425 5420 5416 5412 5408 5401 5395 5392 5388 5382 5375 5370 5365 5360 5355 5351 5346 5341 5335 5330 5323 5317 5310 5303 5295 5289 5283 5279
5419 5422 5425 5428 5430 5432 5433 5433 5433 5432 5432 5430 5427 5425 5422 5419 5416 5412 5408 5404 5400 5395 5388 5384 5379 5374 5367 5363 5358 5354 5349 5345 5340 5334 5329 5324 5318 5311 5305 5298 5291 5285 5280 5277
5410 5413 5416 5419 5421 5423 5424 5424 5425 5425 5425 5424 5420 5417 5414 5411 5408 5405 5401 5396 5391 5385 5380 5375 5370 5365 5361 5356 5352 5347 5343 5339 5334 5329 5324 5318 5313 5306 5300 5293 5287 5282 5278 5276